CAPE
0 0 0 0 51 7 72 33 0 0 0 20 116 140 15 109 53 586 517 176 503 1140 554 113 474 557 306 412 461 412 139 0 0 0 0 0 0 0 0 0 0 0 0 0 0 0 0 0 0
0 0 0 0 3 4 10 247 0 0 59 227 184 244 194 777 977 750 548 309 923 967 223 125 405 384 462 486 412 48 0 0 0 0 0 0 0 0 0 0 0 0 0 0 0 0 0 0 0
0 0 0 0 1 0 47 205 0 0 558 357 429 841 724 1285 1005 738 514 738 893 257 138 307 467 512 583 553 74 0 0 0 0 0 0 0 0 0 0 0 0 0 0 0 0 0 0 0 0
0 0 0 0 0 0 0 203 0 25 594 604 851 996 1191 1238 934 812 538 1020 443 220 408 459 505 661 674 185 0 0 0 0 0 0 0 0 0 0 0 0 0 0 0 0 0 0 0 0 0
0 0 0 0 0 0 0 135 2 25 602 901 1179 1234 1114 895 810 721 634 788 338 368 390 488 645 764 337 0 0 0 0 0 0 0 0 0 0 0 0 0 0 0 0 0 0 0 0 0 0
0 0 0 0 0 0 21 49 0 3 461 1005 1149 1383 1179 1025 861 894 897 512 361 398 378 578 737 458 9 0 0 0 0 0 0 0 0 0 0 0 0 0 0 0 0 0 0 0 0 0 0
0 0 0 0 0 0 0 8 6 107 357 1239 1150 1357 1175 1098 999 990 681 459 428 411 552 831 616 26 0 0 0 0 0 0 0 0 0 0 0 0 0 0 0 0 0 0 0 0 0 0 0
7 0 0 0 0 0 0 9 1 220 393 1279 1340 1349 794 1133 1057 1016 667 509 531 592 823 721 206 0 0 0 0 0 0 0 0 0 0 0 0 0 0 0 0 0 0 0 0 0 0 0 0
21 5 0 0 0 0 3 17 34 134 1129 1555 1400 1366 1287 1107 1105 950 646 566 595 879 898 621 76 0 0 0 0 0 0 0 0 0 0 0 0 0 0 0 0 0 0 0 0 0 0 0 0
33 6 0 0 0 1 18 39 57 121 691 1352 1467 1538 1351 1077 1088 808 583 582 847 835 730 343 0 0 0 0 0 0 0 0 0 0 0 0 0 0 0 0 0 0 0 0 0 0 0 0 0
19 10 8 0 0 65 36 31 34 137 237 953 1632 1668 1248 1172 917 689 531 464 556 681 656 52 0 0 0 0 0 0 0 0 0 0 0 0 0 0 0 0 0 0 0 0 0 0 0 0 0
40 53 33 18 3 22 9 16 64 32 431 626 1221 1694 1220 1200 1054 554 393 361 453 661 333 0 0 0 0 0 0 0 0 0 0 0 0 0 0 0 0 0 0 0 0 0 0 0 0 0 0
83 47 74 7 53 26 0 0 0 28 63 580 1285 1639 1206 1138 748 465 335 581 415 405 142 0 0 0 0 0 0 0 0 0 0 0 0 0 0 0 0 0 0 0 0 0 0 0 0 0 0
63 32 23 48 16 62 0 0 0 0 1 510 1197 1439 1244 1086 791 442 306 429 647 417 63 0 0 0 0 0 0 0 0 0 0 0 0 0 0 0 0 0 0 0 0 0 0 0 0 0 0
79 34 15 24 22 2 5 0 0 0 0 196 1059 1320 1426 1047 742 734 475 344 403 517 36 0 0 0 0 0 0 0 0 0 0 0 0 0 0 0 0 0 0 0 0 0 0 0 0 0 0
54 52 0 1 36 4 4 0 0 0 0 39 597 1346 1261 1019 935 801 696 499 521 483 7 0 0 0 0 0 0 0 0 0 0 0 0 0 0 0 0 0 0 0 0 0 0 0 0 0 0
31 24 0 7 2 3 7 0 0 0 0 0 558 854 1355 1076 1037 1094 971 925 796 489 1 0 0 0 0 0 0 0 0 0 0 0 0 0 0 0 0 0 0 0 0 0 0 0 0 0 0
2 18 16 24 0 0 19 0 30 4 0 0 162 525 1227 968 980 1297 921 685 175 3 0 0 0 0 0 0 0 0 0 0 0 0 0 0 0 0 0 0 0 0 0 0 0 0 0 0 0
8 0 1 27 9 0 0 3 0 14 0 53 133 307 771 713 908 579 173 1 0 0 0 0 0 0 0 0 0 0 0 0 0 0 0 0 0 0 0 0 0 0 0 0 0 0 0 0 0
3 2 3 21 0 0 0 0 0 8 0 46 189 437 661 662 648 449 114 2 2 0 0 0 0 0 0 0 0 0 0 0 0 0 0 0 0 0 0 0 0 0 0 0 0 0 0 0 0
5 8 3 10 2 0 0 0 0 0 0 164 316 598 681 728 575 339 131 16 3 3 0 1 0 0 0 0 0 0 0 0 0 0 0 0 0 0 0 0 0 0 0 0 0 0 0 0 0
2 3 20 4 6 0 0 0 0 0 2 86 186 437 580 380 240 144 120 92 44 26 2 3 0 0 0 0 0 0 0 0 0 0 0 0 0 0 0 0 0 0 0 0 0 0 0 0 0
0 0 0 15 15 13 1 0 0 0 8 8 95 305 315 145 68 12 2 0 0 0 1 0 0 0 0 0 0 0 0 0 0 0 0 0 0 0 0 0 0 0 0 0 0 0 0 0 0
0 0 0 3 27 0 1 0 0 0 0 13 146 286 267 91 42 22 0 0 0 0 0 0 0 0 0 0 0 0 0 0 0 0 0 0 0 0 0 0 0 0 0 0 0 0 0 0 0
0 1 21 23 4 4 3 0 38 36 0 15 134 275 209 94 12 0 0 0 0 0 0 0 0 0 0 0 0 0 0 0 0 0 0 0 0 0 0 0 0 0 0 0 0 0 0 0 0
0 6 6 8 11 3 0 0 0 1 0 0 6 160 277 183 6 0 0 0 0 0 0 0 0 0 0 0 0 0 0 0 0 0 0 0 0 0 0 0 0 0 0 0 0 0 0 0 0
4 0 0 0 0 2 32 55 0 0 0 0 0 0 7 96 1 0 0 0 0 0 0 0 0 0 0 0 0 0 0 0 0 0 0 0 0 0 0 0 0 0 0 0 0 0 0 0 0
0 0 5 8 0 0 22 12 49 0 0 0 0 0 0 2 0 0 0 0 0 0 0 0 0 0 0 0 0 0 0 0 0 0 0 0 0 0 0 0 0 0 0 0 0 0 0 0 0
0 0 0 0 0 1 6 27 8 0 0 0 0 0 0 1 0 0 0 0 0 0 0 0 0 0 0 0 0 0 0 0 0 0 0 0 0 0 0 0 0 0 0 0 0 0 0 0 0
0 0 0 0 0 0 0 0 0 0 0 0 0 0 0 0 0 0 0 0 0 0 0 0 0 0 0 0 0 0 0 0 0 0 0 0 0 0 0 0 0 0 0 0 0 0 0 0 0
CIN
-0 -0 -0 -0 -37 -36 -26 -84 -0 -0 -0 -139 -85 -66 -103 -95 -229 -55 -120 -220 -93 -21 -61 -303 -37 -17 -66 -43 -44 -56 -156 -0 -0 -0 -0 -0 -0 -0 -0 -0 -0 -0 -0 -0 -0 -0 -0 -0 -0
-0 -0 -0 -0 -2 -3 -29 -21 -0 -0 -44 -122 -90 -99 -72 -48 -155 -178 -132 -180 -29 -23 -196 -281 -73 -55 -36 -42 -61 -172 -0 -0 -0 -0 -0 -0 -0 -0 -0 -0 -0 -0 -0 -0 -0 -0 -0 -0 -0
-0 -0 -0 -0 -0 -0 -23 -6 -30 -0 -81 -72 -79 -73 -52 -95 -146 -158 -154 -72 -31 -183 -245 -150 -52 -27 -22 -29 -254 -0 -0 -0 -0 -0 -0 -0 -0 -0 -0 -0 -0 -0 -0 -0 -0 -0 -0 -0 -0
-0 -0 -0 -0 -0 -0 -0 -16 -0 -31 -97 -73 -37 -45 -130 -119 -132 -125 -157 -55 -129 -207 -122 -92 -44 -9 -11 -167 -0 -0 -0 -0 -0 -0 -0 -0 -0 -0 -0 -0 -0 -0 -0 -0 -0 -0 -0 -0 -0
-0 -0 -0 -0 -0 -0 -1 -6 -103 -29 -72 -68 -52 -60 -133 -165 -176 -165 -142 -71 -185 -153 -146 -86 -23 -7 -106 -0 -0 -0 -0 -0 -0 -0 -0 -0 -0 -0 -0 -0 -0 -0 -0 -0 -0 -0 -0 -0 -0
-0 -0 -0 -0 -0 -0 -3 -10 -0 -27 -32 -47 -63 -81 -116 -154 -172 -143 -85 -138 -185 -164 -151 -67 -31 -83 -245 -0 -0 -0 -0 -0 -0 -0 -0 -0 -0 -0 -0 -0 -0 -0 -0 -0 -0 -0 -0 -0 -0
-0 -0 -0 -0 -0 -0 -0 -4 -106 -32 -24 -34 -48 -47 -124 -135 -140 -115 -112 -150 -162 -157 -89 -22 -58 -221 -0 -0 -0 -0 -0 -0 -0 -0 -0 -0 -0 -0 -0 -0 -0 -0 -0 -0 -0 -0 -0 -0 -0
-1 -0 -0 -0 -0 -0 -0 -5 -1 -2 -3 -3 -30 -44 -172 -165 -139 -112 -130 -137 -118 -89 -23 -43 -201 -0 -0 -0 -0 -0 -0 -0 -0 -0 -0 -0 -0 -0 -0 -0 -0 -0 -0 -0 -0 -0 -0 -0 -0
-1 -1 -0 -0 -0 -0 -1 -3 -43 -13 -7 -15 -29 -23 -135 -175 -124 -120 -153 -138 -113 -36 -27 -60 -247 -0 -0 -0 -0 -0 -0 -0 -0 -0 -0 -0 -0 -0 -0 -0 -0 -0 -0 -0 -0 -0 -0 -0 -0
-0 -1 -0 -0 -0 -1 -4 -2 -23 -23 -3 -1 -11 -54 -150 -171 -135 -174 -196 -164 -72 -53 -63 -139 -0 -0 -0 -0 -0 -0 -0 -0 -0 -0 -0 -0 -0 -0 -0 -0 -0 -0 -0 -0 -0 -0 -0 -0 -0
-1 -0 -3 -0 -0 -11 -34 -2 -3 -2 -7 -2 -1 -38 -126 -135 -161 -183 -188 -174 -119 -70 -56 -300 -0 -0 -0 -0 -0 -0 -0 -0 -0 -0 -0 -0 -0 -0 -0 -0 -0 -0 -0 -0 -0 -0 -0 -0 -0
-1 -1 -14 -2 -7 -31 -53 -3 -2 -9 -7 -20 -4 -41 -107 -104 -114 -200 -201 -187 -143 -66 -121 -0 -0 -0 -0 -0 -0 -0 -0 -0 -0 -0 -0 -0 -0 -0 -0 -0 -0 -0 -0 -0 -0 -0 -0 -0 -0
-1 -11 -1 -3 -1 -31 -0 -0 -0 -2 -41 -27 -1 -19 -82 -78 -119 -139 -133 -73 -102 -87 -168 -0 -0 -0 -0 -0 -0 -0 -0 -0 -0 -0 -0 -0 -0 -0 -0 -0 -0 -0 -0 -0 -0 -0 -0 -0 -0
-1 -1 -5 -1 -3 -3 -0 -0 -0 -0 -2 -10 -1 -22 -43 -66 -99 -90 -108 -92 -51 -51 -174 -0 -0 -0 -0 -0 -0 -0 -0 -0 -0 -0 -0 -0 -0 -0 -0 -0 -0 -0 -0 -0 -0 -0 -0 -0 -0
-8 -0 -1 -3 -3 -2 -1 -0 -0 -0 -0 -25 -4 -14 -8 -22 -90 -74 -95 -107 -67 -25 -173 -0 -0 -0 -0 -0 -0 -0 -0 -0 -0 -0 -0 -0 -0 -0 -0 -0 -0 -0 -0 -0 -0 -0 -0 -0 -0
-2 -9 -0 -5 -2 -2 -13 -0 -0 -0 -0 -2 -5 -4 -6 -12 -47 -75 -33 -55 -22 -15 -203 -0 -0 -0 -0 -0 -0 -0 -0 -0 -0 -0 -0 -0 -0 -0 -0 -0 -0 -0 -0 -0 -0 -0 -0 -0 -0
-0 -1 -0 -8 -4 -2 -2 -0 -0 -0 -0 -0 -3 -7 -2 -7 -28 -34 -7 -3 -1 -11 -29 -0 -0 -0 -0 -0 -0 -0 -0 -0 -0 -0 -0 -0 -0 -0 -0 -0 -0 -0 -0 -0 -0 -0 -0 -0 -0
-0 -1 -3 -13 -0 -0 -2 -0 -2 -4 -0 -0 -2 -4 -0 -13 -44 -8 -1 -4 -97 -21 -0 -0 -0 -0 -0 -0 -0 -0 -0 -0 -0 -0 -0 -0 -0 -0 -0 -0 -0 -0 -0 -0 -0 -0 -0 -0 -0
-24 -0 -1 -11 -7 -0 -0 -3 -0 -2 -0 -11 -1 -3 -2 -20 -3 -23 -96 -13 -0 -0 -0 -0 -0 -0 -0 -0 -0 -0 -0 -0 -0 -0 -0 -0 -0 -0 -0 -0 -0 -0 -0 -0 -0 -0 -0 -0 -0
-0 -1 -4 -14 -1 -0 -0 -0 -0 -2 -0 -2 -1 -0 -14 -27 -6 -17 -67 -10 -0 -0 -0 -0 -0 -0 -0 -0 -0 -0 -0 -0 -0 -0 -0 -0 -0 -0 -0 -0 -0 -0 -0 -0 -0 -0 -0 -0 -0
-2 -3 -3 -17 -0 -0 -0 -0 -0 -0 -0 -9 -2 -0 -6 -16 -0 -5 -37 -61 -0 -0 -0 -0 -0 -0 -0 -0 -0 -0 -0 -0 -0 -0 -0 -0 -0 -0 -0 -0 -0 -0 -0 -0 -0 -0 -0 -0 -0
-5 -6 -26 -0 -1 -0 -0 -0 -0 -0 -6 -15 -1 -0 -0 -12 -4 -31 -17 -6 -63 -21 -0 -0 -0 -0 -0 -0 -0 -0 -0 -0 -0 -0 -0 -0 -0 -0 -0 -0 -0 -0 -0 -0 -0 -0 -0 -0 -0
-1 -0 -0 -2 -1 -6 -2 -1 -0 -0 -2 -13 -0 -0 -7 -32 -11 -20 -27 -4 -0 -0 -0 -0 -0 -0 -0 -0 -0 -0 -0 -0 -0 -0 -0 -0 -0 -0 -0 -0 -0 -0 -0 -0 -0 -0 -0 -0 -0
-0 -0 -3 -18 -9 -0 -1 -0 -0 -0 -1 -8 -1 -1 -16 -55 -38 -51 -7 -0 -0 -0 -0 -0 -0 -0 -0 -0 -0 -0 -0 -0 -0 -0 -0 -0 -0 -0 -0 -0 -0 -0 -0 -0 -0 -0 -0 -0 -0
-0 -10 -5 -6 -10 -5 -23 -5 -9 -10 -0 -2 -10 -3 -30 -64 -83 -0 -0 -0 -0 -0 -0 -0 -0 -0 -0 -0 -0 -0 -0 -0 -0 -0 -0 -0 -0 -0 -0 -0 -0 -0 -0 -0 -0 -0 -0 -0 -0
-0 -2 -1 -25 -5 -6 -0 -0 -0 -5 -0 -0 -3 -17 -2 -50 -121 -0 -0 -0 -0 -0 -0 -0 -0 -0 -0 -0 -0 -0 -0 -0 -0 -0 -0 -0 -0 -0 -0 -0 -0 -0 -0 -0 -0 -0 -0 -0 -0
-19 -0 -0 -0 -0 -3 -16 -16 -0 -0 -0 -0 -0 -0 -75 -78 -0 -0 -0 -0 -0 -0 -0 -0 -0 -0 -0 -0 -0 -0 -0 -0 -0 -0 -0 -0 -0 -0 -0 -0 -0 -0 -0 -0 -0 -0 -0 -0 -0
-0 -0 -12 -5 -2 -7 -14 -24 -11 -0 -0 -0 -0 -0 -0 -10 -0 -0 -0 -0 -0 -0 -0 -0 -0 -0 -0 -0 -0 -0 -0 -0 -0 -0 -0 -0 -0 -0 -0 -0 -0 -0 -0 -0 -0 -0 -0 -0 -0
-0 -0 -0 -0 -0 -1 -8 -16 -34 -0 -0 -0 -0 -0 -0 -0 -0 -0 -0 -0 -0 -0 -0 -0 -0 -0 -0 -0 -0 -0 -0 -0 -0 -0 -0 -0 -0 -0 -0 -0 -0 -0 -0 -0 -0 -0 -0 -0 -0
-0 -0 -0 -0 -0 -0 -0 -0 -0 -0 -0 -0 -0 -0 -0 -0 -0 -0 -0 -0 -0 -0 -0 -0 -0 -0 -0 -0 -0 -0 -0 -0 -0 -0 -0 -0 -0 -0 -0 -0 -0 -0 -0 -0 -0 -0 -0 -0 -0
Wind_Speed
29 27 26 24 28 30 41 41 23 22 20 17 17 15 13 16 13 16 5 2 9 10 11 14 15 11 11 11 10 12 13 14 15 16 16 17 18 19 20 21 22 23 25 26 26 25 24 24 25
27 25 25 27 37 41 41 30 27 27 21 19 12 17 14 15 13 7 2 6 7 11 13 14 13 15 16 15 14 14 15 15 16 16 17 18 18 18 20 21 22 24 25 26 26 25 25 25 25
26 24 28 32 43 51 39 25 24 24 21 18 14 19 15 15 9 4 2 9 9 7 9 11 14 16 17 16 16 16 16 16 16 17 17 17 18 19 20 21 23 25 25 26 26 25 26 25 26
22 24 31 45 48 44 45 20 24 20 22 22 18 19 14 16 3 5 11 7 7 5 6 14 15 18 17 17 17 18 18 17 17 17 16 17 17 18 19 21 23 24 25 26 26 26 27 26 26
25 28 41 50 51 41 34 31 20 23 18 25 22 19 17 10 9 7 8 9 6 4 7 14 15 13 14 16 17 18 18 17 16 16 16 17 17 18 19 21 23 24 25 26 27 27 27 28 27
29 32 44 56 49 43 35 33 27 27 20 17 23 18 18 8 2 5 8 5 5 5 9 11 11 10 11 15 17 18 18 17 16 16 16 16 17 18 19 21 23 24 25 27 28 28 28 28 28
36 37 50 48 50 43 39 33 33 28 25 20 18 19 18 10 5 5 6 5 4 4 5 8 9 8 10 14 17 18 19 18 16 16 16 16 17 18 20 21 23 24 25 27 28 28 29 29 28
33 39 49 49 46 50 38 34 35 32 28 17 17 23 22 14 8 6 5 5 5 4 4 6 7 7 10 13 16 17 18 18 16 16 16 17 18 19 20 21 23 24 25 27 28 29 29 27 26
29 42 48 48 46 40 33 37 35 31 22 23 20 19 13 14 10 9 8 7 6 3 3 3 4 5 8 13 14 16 16 17 16 16 15 16 17 18 20 21 23 24 25 27 27 28 28 28 21
31 43 45 39 40 38 32 36 36 33 30 25 22 15 9 14 14 12 12 10 8 7 4 2 1 3 6 10 13 13 15 15 15 15 15 16 17 18 19 21 22 23 25 23 25 26 28 30 30
30 40 38 36 34 31 34 33 35 34 36 30 27 19 14 16 16 14 15 12 11 8 6 4 1 2 5 7 9 11 13 14 15 15 15 16 17 18 20 21 22 24 25 26 28 29 30 31 30
29 36 35 34 34 35 36 31 36 36 29 27 25 22 18 19 20 17 16 14 13 9 7 5 4 3 4 6 8 10 11 13 14 14 15 16 17 19 20 21 22 24 25 27 27 28 29 31 30
29 25 34 33 32 37 36 38 37 38 33 26 22 22 24 20 20 19 18 14 14 13 10 8 7 5 5 6 8 9 11 12 13 14 15 16 17 19 20 21 22 23 25 26 27 28 30 31 30
23 25 25 32 36 35 40 42 39 39 31 28 27 25 26 22 19 19 19 19 16 15 12 10 8 8 7 7 8 9 10 12 13 14 15 16 17 19 20 21 22 23 24 25 27 28 29 30 30
25 24 26 34 37 37 34 44 47 41 38 33 31 27 26 27 19 19 20 19 17 15 12 11 10 8 8 8 8 10 11 11 13 14 15 16 18 19 20 21 22 23 24 25 27 28 29 30 30
19 21 28 27 35 36 34 46 42 40 39 37 33 28 28 27 26 16 19 19 19 15 13 10 9 8 8 8 9 10 11 12 13 14 15 16 17 19 20 21 21 23 24 25 27 28 30 30 30
8 21 23 25 26 31 37 39 33 34 40 41 36 32 30 28 29 22 20 20 19 17 14 11 10 10 10 7 10 11 12 13 15 15 15 17 18 19 20 21 21 22 24 25 27 29 30 30 31
6 18 23 25 22 33 38 41 27 30 37 41 37 35 30 31 28 26 19 16 17 15 14 14 13 11 9 9 10 12 14 14 16 16 16 17 18 19 20 21 22 22 24 25 27 29 29 29 31
16 14 25 21 20 29 42 40 39 29 32 38 38 37 32 32 29 24 23 20 17 16 15 15 15 15 11 11 11 13 15 15 16 16 17 17 18 19 20 21 21 23 24 26 27 29 31 30 31
20 22 23 27 23 25 33 45 38 35 32 35 38 35 33 28 27 25 21 20 21 19 16 16 14 20 12 9 11 16 15 16 16 16 17 18 19 19 20 20 21 23 25 26 28 29 31 30 30
18 26 26 19 15 25 29 39 42 39 32 31 31 31 31 29 24 24 21 19 20 20 21 15 16 18 6 13 10 15 16 17 18 17 18 18 18 18 19 20 22 23 25 27 28 29 30 31 30
17 18 22 19 19 25 25 36 42 41 34 33 32 31 28 26 25 24 23 22 18 24 19 20 20 19 11 8 8 9 13 18 19 18 18 18 18 18 19 21 22 23 25 27 28 28 28 29 30
12 20 9 8 21 22 24 33 35 38 37 35 34 32 30 27 21 20 20 21 18 17 19 14 11 8 6 7 11 12 16 17 16 16 17 17 17 18 19 21 23 25 25 27 28 29 28 27 28
14 11 15 15 18 21 23 31 30 36 38 34 33 32 28 28 28 13 20 14 16 17 19 17 17 12 9 9 11 12 14 15 15 15 17 17 17 18 20 22 24 25 26 27 28 28 28 29 28
15 19 15 14 7 19 12 24 26 22 29 35 32 32 28 29 29 26 24 24 20 17 20 18 15 12 9 8 12 13 13 14 15 15 16 17 18 20 22 23 25 26 27 27 28 29 29 29 30
16 14 12 12 18 15 10 22 26 21 22 25 25 28 26 26 28 24 23 18 14 13 15 15 8 4 8 7 10 11 13 14 14 15 15 17 19 21 22 24 25 27 28 29 29 30 30 31 31
15 12 12 9 11 9 9 7 16 19 21 25 28 27 28 25 25 23 20 16 17 15 5 7 7 9 5 8 10 12 13 13 13 14 16 18 20 22 23 25 27 28 29 30 31 32 33 33 33
14 12 12 12 11 10 11 10 20 20 22 22 25 27 25 22 22 18 17 15 15 11 9 7 9 8 8 8 10 12 12 13 14 15 17 19 21 23 25 27 28 29 31 32 33 34 34 35 35
14 13 12 10 9 9 9 13 13 10 15 19 21 20 20 21 20 18 14 12 11 7 7 8 9 8 8 9 11 12 13 14 15 17 19 21 23 24 26 28 30 32 33 34 35 36 36 37 38
10 9 10 8 10 10 9 10 16 10 11 12 13 13 15 16 16 15 12 8 8 7 7 8 9 9 10 11 11 13 15 16 18 20 21 23 25 26 28 31 32 34 35 36 37 38 38 39 40
Wind_Direction
272 270 271 271 263 262 249 245 262 265 266 265 260 269 268 283 274 269 44 295 106 101 96 93 89 67 56 42 26 22 18 19 18 14 13 13 13 11 7 7 6 7 15 21 26 34 36 35 27
270 267 264 263 254 249 248 254 255 257 262 260 259 265 269 273 289 319 308 113 112 103 98 93 85 82 77 66 47 34 30 27 24 21 20 17 12 10 8 8 9 16 24 28 34 36 35 34 25
267 261 254 253 250 243 248 252 253 256 257 251 259 258 270 277 298 56 92 117 113 106 94 88 88 86 83 69 55 48 41 36 30 26 24 18 16 11 9 7 12 21 27 32 36 38 32 31 23
263 255 257 247 246 247 243 259 250 259 252 247 256 252 272 280 301 298 116 121 119 113 95 96 91 93 81 72 64 60 55 46 39 31 23 17 13 10 8 9 14 20 24 27 31 30 27 27 23
259 254 247 245 245 248 246 252 256 247 256 245 248 254 260 274 285 104 122 124 131 128 97 97 92 79 71 67 64 64 55 43 36 29 23 17 15 13 9 9 12 17 20 21 24 27 23 21 21
253 251 245 241 245 246 249 245 252 246 253 250 246 249 253 276 222 133 130 137 137 125 101 93 84 71 63 64 67 65 58 45 36 29 23 16 11 13 12 10 12 15 17 17 18 21 19 17 19
250 248 244 247 244 244 243 246 245 248 248 249 249 244 252 246 209 160 139 146 147 131 112 95 83 65 56 61 67 68 61 52 38 30 24 19 15 14 11 10 11 13 13 15 19 20 16 16 19
255 251 247 244 245 242 242 243 243 247 250 248 242 250 244 233 200 193 199 160 152 156 131 102 83 66 61 63 67 64 61 52 38 31 30 30 25 21 10 11 7 10 12 14 17 16 14 21 26
259 247 244 243 242 246 243 239 242 248 249 244 248 258 241 211 195 201 202 201 194 173 159 127 86 60 59 68 67 60 55 53 46 34 30 36 13 15 12 10 9 8 11 15 21 17 21 19 34
254 245 244 247 246 244 245 243 239 242 243 241 244 252 212 203 205 203 209 209 200 212 176 178 70 47 49 57 72 51 60 54 43 29 21 12 11 10 12 13 11 10 8 25 24 21 18 9 8
255 247 247 248 249 249 247 244 241 239 239 242 240 232 220 209 215 215 221 221 217 216 220 233 258 0 28 35 40 33 37 47 39 24 17 13 10 10 8 4 1 1 3 6 7 6 6 3 7
259 250 252 247 247 248 244 250 241 240 246 248 242 229 222 218 222 221 222 222 223 226 232 241 265 302 342 2 10 19 21 40 31 19 13 10 7 6 1 0 358 358 360 2 4 4 3 1 5
259 262 251 249 250 248 249 245 244 239 243 246 245 229 226 221 224 226 227 225 227 230 238 246 262 285 313 333 349 359 15 30 21 10 5 2 1 3 360 356 355 357 358 360 1 2 360 359 4
266 256 260 255 247 248 246 244 243 240 244 244 239 233 229 223 222 227 226 229 230 231 238 245 259 278 295 311 332 345 5 26 8 1 1 357 355 358 359 355 353 354 357 358 360 359 357 358 2
260 262 266 256 247 244 249 242 238 239 240 242 239 237 230 228 221 228 227 228 229 233 237 243 254 273 289 302 323 340 351 16 1 355 358 355 349 352 354 353 352 353 355 356 357 355 354 356 358
276 275 260 267 247 241 243 239 240 239 238 238 236 237 232 230 228 227 228 228 227 231 232 235 249 263 278 297 316 331 344 353 350 344 348 350 348 345 347 349 350 351 352 354 354 353 351 354 355
304 279 264 266 250 240 238 239 245 237 237 237 236 237 234 233 231 231 231 229 228 230 231 235 248 259 272 298 310 324 334 335 325 334 342 343 345 343 342 344 346 347 350 350 350 350 351 351 353
1 203 263 263 261 242 238 237 241 242 240 236 236 236 235 234 233 231 229 230 235 235 233 241 254 263 274 290 308 316 315 326 320 328 338 342 341 342 341 341 342 345 347 348 348 347 349 351 350
309 309 270 284 280 251 238 238 241 245 243 237 237 234 236 236 235 234 234 239 241 240 237 245 253 257 270 283 298 309 308 317 318 326 332 337 338 339 340 341 342 343 345 346 347 347 344 347 349
286 271 279 259 277 261 247 237 241 243 245 240 237 232 235 235 233 237 239 240 243 243 245 245 260 253 269 288 306 306 309 313 317 326 330 335 335 337 339 341 342 343 343 345 345 346 343 345 350
186 253 271 301 301 266 254 241 238 241 245 243 236 233 233 229 228 229 237 241 245 247 253 253 254 257 272 294 317 302 305 310 313 323 325 331 334 337 338 341 342 343 344 343 343 345 343 341 345
205 304 281 305 296 262 250 241 238 236 240 240 234 232 230 230 234 231 239 242 248 254 261 267 267 273 292 320 326 313 309 305 307 318 322 328 332 336 338 340 342 343 343 342 343 345 345 343 341
97 280 133 121 287 276 256 245 243 233 236 239 232 233 231 230 234 225 238 252 256 270 272 280 288 294 315 320 310 317 305 309 324 326 318 325 332 336 338 339 340 340 342 341 341 341 343 344 342
224 163 137 165 202 279 261 241 253 231 236 237 234 234 232 233 236 248 241 267 264 277 280 277 277 284 301 316 318 316 314 320 323 325 316 321 332 335 338 337 338 339 339 340 341 342 341 339 339
140 81 128 152 336 285 304 251 248 244 243 239 235 234 235 236 240 248 253 262 272 284 270 275 271 283 297 326 314 313 320 323 323 320 323 324 326 330 334 336 336 337 338 339 338 337 336 336 334
136 129 126 273 303 324 26 265 256 260 251 243 240 237 237 240 243 250 252 260 264 272 267 272 282 312 321 326 325 336 320 321 323 323 326 329 328 330 335 336 337 336 336 335 335 335 333 332 331
103 135 122 139 154 72 65 22 286 262 253 244 240 240 239 243 245 246 250 257 251 262 265 277 297 299 349 337 325 324 323 324 325 328 330 328 332 332 334 334 334 334 334 333 332 330 329 329 329
144 132 109 96 117 218 70 353 276 256 252 248 243 240 240 242 242 245 248 250 254 265 273 286 294 313 332 332 323 322 325 329 332 334 332 332 333 333 332 331 332 331 330 329 328 328 327 326 326
104 111 132 128 106 160 239 26 328 292 268 256 248 243 240 238 239 242 246 251 258 267 276 291 301 317 328 329 320 322 326 329 331 331 332 330 330 331 330 330 329 328 327 327 326 326 325 324 324
124 128 129 137 116 129 156 157 316 321 288 271 259 252 244 241 240 241 246 252 259 275 292 301 308 313 317 317 323 323 323 326 326 327 328 329 329 330 330 328 327 326 326 326 325 325 324 323 322